Vacaville, CA

8:59 PM PST on November 18, 2019 (GMT -0800)
Nut Tree

Weather History for KVCB - October, 2019

Change the Weather History Date:

Monday, October 21, 2019

  Actual Average Record
Temperature  
Mean Temperature 68 °F -  
Max Temperature 88 °F 76 °F 91 °F (2003)
Min Temperature 48 °F 47 °F 33 °F (1949)
Cooling Degree Days 2    
Growing Degree Days 18 (Base 50)    
Moisture  
Dew Point 42 °F    
Average Humidity 44    
Maximum Humidity 86    
Minimum Humidity 17    
Precipitation  
Precipitation 0.00 in - - ()
Sea Level Pressure  
Sea Level Pressure 30.13 in    
Wind  
Wind Speed 6 mph ()    
Max Wind Speed 20 mph    
Max Gust Speed 31 mph    
Visibility 10.0 miles    
Events      
Averages and records for this station are not official NWS values.
T = Trace of Precipitation, MM = Missing Value Source: Averaged Metar Reports

Daily Weather History Graph

Daily Weather History Graph

Search for Another Location

Airport or City:

Astronomy

Oct. 21, 2019 Rise Set
Actual Time 7:22 AM PDT 6:21 PM PDT
Civil Twilight 6:55 AM PDT 6:48 PM PDT
Nautical Twilight 6:24 AM PDT 7:19 PM PDT
Astronomical Twilight 5:54 AM PDT 7:50 PM PDT
Moon No Moon Rise 2:42 PM PDT (10/21)
Length of Visible Light 11h 52m
Length of Day
10h 59m
Waning Gibbous, 47% of the Moon is Illuminated
Oct 21
Waning Gibbous
Oct 27
New
Nov 4
First Quarter
Nov 12
Full
Nov 19
Last Quarter

Hourly Weather History & Observations

Time (PDT) Temp. Dew Point Humidity Pressure Visibility Wind Dir Wind Speed Gust Speed Precip Events Conditions
12:53 AM 55.0 °F 45.0 °F 69% 30.11 in 10.0 mi SW 3.5 mph - N/A   Clear
1:53 AM 51.1 °F 43.0 °F 74% 30.12 in 10.0 mi Calm Calm - N/A   Clear
2:53 AM 52.0 °F 45.0 °F 77% 30.13 in 10.0 mi SW 3.5 mph - N/A   Clear
3:53 AM 51.1 °F 45.0 °F 80% 30.12 in 10.0 mi Calm Calm - N/A   Clear
4:53 AM 50.0 °F 45.0 °F 83% 30.11 in 10.0 mi East 4.6 mph - N/A   Clear
5:53 AM 48.0 °F 44.1 °F 86% 30.13 in 10.0 mi Calm Calm - N/A   Clear
6:53 AM 48.0 °F 44.1 °F 86% 30.14 in 10.0 mi Calm Calm - N/A   Clear
7:53 AM 52.0 °F 46.9 °F 83% 30.15 in 10.0 mi Calm Calm - N/A   Clear
8:53 AM 61.0 °F 48.9 °F 64% 30.17 in 10.0 mi Calm Calm - N/A   Clear
9:53 AM 70.0 °F 48.9 °F 47% 30.18 in 10.0 mi ESE 3.5 mph - N/A   Clear
10:53 AM 80.1 °F 43.0 °F 27% 30.17 in 10.0 mi North 13.8 mph 19.6 mph N/A   Clear
11:53 AM 82.9 °F 39.0 °F 21% 30.17 in 10.0 mi North 17.3 mph 28.8 mph N/A   Clear
12:53 PM 84.9 °F 37.0 °F 18% 30.15 in 10.0 mi North 15.0 mph 25.3 mph N/A   Clear
1:53 PM 86.0 °F 39.0 °F 19% 30.13 in 10.0 mi North 19.6 mph 31.1 mph N/A   Clear
2:53 PM 87.1 °F 42.1 °F 21% 30.11 in 10.0 mi North 18.4 mph 26.5 mph N/A   Clear
3:53 PM 87.1 °F 41.0 °F 20% 30.10 in 10.0 mi North 15.0 mph 24.2 mph N/A   Clear
4:53 PM 86.0 °F 39.0 °F 19% 30.10 in 10.0 mi North 16.1 mph 21.9 mph N/A   Clear
5:53 PM 84.0 °F 35.1 °F 17% 30.10 in 10.0 mi North 12.7 mph 21.9 mph N/A   Clear
6:53 PM 75.9 °F 36.0 °F 23% 30.11 in 10.0 mi North 6.9 mph - N/A   Clear
7:53 PM 75.9 °F 36.0 °F 23% 30.13 in 10.0 mi North 9.2 mph - N/A   Clear
8:53 PM 75.0 °F 36.0 °F 24% 30.13 in 10.0 mi NNW 6.9 mph - N/A   Clear
9:53 PM 77.0 °F 37.9 °F 24% 30.14 in 10.0 mi North 9.2 mph - N/A   Clear
10:53 PM 78.1 °F 39.9 °F 25% 30.14 in 10.0 mi North 11.5 mph - N/A   Clear
11:53 PM 75.9 °F 39.9 °F 27% 30.15 in 10.0 mi North 8.1 mph - N/A   Clear